Wetbulb
69.16 70.04 71.08 71.51 72.12 72.24 72.36 72.82 73.31 73.77 75.58 75.99 75.65 75.56 76.56 77.39 77.84 75.02 75.37 76.16 75.15 74.83 74.32 74.42 76.62 77.57 78.03 78.49 78.32 78.64 79.04 78.22 76.96
66.72 69.13 70.46 71.17 72.25 72.76 72.89 72.93 74.14 74.77 76.10 76.72 76.78 75.04 77.31 77.39 77.64 77.10 75.80 78.68 77.27 75.77 77.06 75.67 76.34 76.70 77.27 77.52 78.00 78.45 78.99 77.30 77.85
64.79 67.01 69.53 70.84 71.79 72.66 73.40 73.71 73.85 74.36 75.62 76.32 76.01 75.90 76.21 75.86 76.46 76.94 77.41 76.89 76.93 77.46 76.91 77.04 76.72 76.43 76.18 76.65 77.56 78.13 78.84 77.71 78.33
63.67 64.63 66.95 69.86 71.67 72.90 73.71 74.10 74.28 74.19 74.33 74.83 75.00 76.00 76.57 77.24 76.21 76.35 76.51 75.85 76.44 77.06 77.48 77.51 77.57 76.96 76.58 76.08 76.76 77.87 78.16 78.11 77.56
63.52 65.04 67.14 69.09 71.39 72.99 73.39 73.69 73.91 74.04 74.41 74.28 74.89 76.59 77.48 76.63 77.19 77.69 75.78 76.17 76.61 77.24 77.20 77.94 77.75 77.78 77.34 76.86 76.65 77.75 77.91 77.55 76.79
61.80 63.62 65.97 69.03 70.15 71.99 73.13 73.42 74.70 74.15 74.51 74.28 74.74 75.91 75.26 75.97 76.20 76.31 76.94 77.02 77.14 77.11 77.39 77.47 77.65 77.69 77.17 76.99 76.26 76.47 77.31 77.51 77.30
63.37 63.32 64.36 68.01 69.91 71.02 73.24 74.27 75.44 75.55 74.61 74.90 74.50 74.64 74.76 76.31 76.98 77.47 76.76 77.93 78.29 77.22 78.12 77.42 77.47 77.87 77.58 77.28 76.96 76.22 76.08 76.40 77.17
63.45 65.07 66.02 66.15 68.93 70.53 72.34 73.93 75.32 75.65 74.84 76.04 75.61 75.89 74.91 76.45 78.08 78.16 78.74 78.67 78.40 78.05 77.57 77.36 77.82 77.57 77.46 77.40 77.00 75.77 76.48 75.87 75.65
63.30 64.67 66.11 67.75 68.82 68.73 70.71 72.51 74.22 75.41 75.91 75.74 76.86 76.84 76.19 77.59 78.18 78.49 78.32 78.60 78.51 78.29 77.74 77.81 77.74 77.31 77.33 76.90 76.12 68.58 67.12 72.75 75.30
62.71 64.19 65.92 67.46 68.53 70.17 70.62 71.46 73.63 74.99 76.05 76.47 76.87 77.31 77.21 77.78 78.28 78.23 78.54 78.09 78.34 78.46 78.04 77.87 77.76 77.21 77.36 77.23 77.77 66.21 65.11 67.41 75.27
60.79 62.34 64.27 66.78 68.54 69.54 71.04 71.95 72.37 74.46 75.13 76.78 77.21 77.15 77.26 77.75 78.12 77.89 78.06 78.37 78.29 78.89 78.08 78.43 78.40 77.27 77.93 77.46 77.69 65.80 63.97 65.63 75.29
60.11 60.77 62.34 66.32 68.74 69.92 71.52 72.67 72.49 74.08 74.10 75.29 75.84 76.63 77.05 77.73 78.00 77.92 77.73 77.53 77.89 77.76 77.73 77.72 77.61 77.74 78.37 78.29 78.27 63.82 63.07 66.63 75.00
58.11 59.32 61.36 66.14 69.35 71.46 73.38 73.75 73.31 73.01 73.51 75.51 75.88 76.45 76.93 77.97 78.05 78.28 77.84 78.26 78.30 78.32 77.30 76.53 76.46 76.65 77.85 73.53 78.54 66.29 60.83 66.30 75.07
55.60 56.20 57.16 64.29 69.58 71.41 74.26 73.93 73.12 74.89 74.56 74.85 76.10 75.92 75.91 77.32 77.66 78.46 78.68 78.82 78.63 78.74 77.78 77.94 78.20 77.92 78.37 78.37 76.58 76.94 59.73 58.84 75.55
55.19 55.14 55.68 59.20 65.91 69.08 74.02 74.09 74.29 76.09 75.36 75.94 77.09 77.21 76.10 77.32 77.85 76.38 76.23 78.34 77.67 77.62 78.00 77.57 78.02 77.41 76.83 77.29 78.43 67.21 62.09 57.78 60.88
53.48 55.98 55.31 57.13 60.98 67.48 70.80 74.88 74.53 73.73 76.10 76.92 76.25 76.74 77.02 77.00 76.84 76.49 78.25 77.65 76.96 76.06 77.05 76.10 75.96 75.72 75.94 76.33 77.47 78.70 61.59 56.85 57.55
53.16 54.57 55.52 57.11 57.48 60.88 63.50 68.86 72.11 73.86 74.88 76.05 75.73 75.54 76.06 76.34 76.24 75.92 76.58 76.66 76.70 76.26 75.88 75.50 75.44 75.59 75.51 76.34 77.05 77.68 78.94 75.62 68.89
52.96 54.31 56.20 57.15 57.16 57.59 58.49 62.21 65.30 69.33 73.64 75.33 74.52 75.14 75.35 75.68 76.03 75.74 76.28 76.89 76.57 76.27 78.13 74.84 76.14 76.15 76.66 76.42 76.60 77.32 71.77 73.30 79.06
52.79 53.42 56.46 57.18 58.44 58.13 58.23 60.17 62.08 64.20 67.84 72.79 75.14 74.79 74.23 74.04 74.50 75.03 75.28 75.47 75.31 56.23 56.37 53.81 53.81 53.99 65.94 77.05 65.61 59.07 55.67 57.23 56.17
52.37 55.17 55.93 57.15 58.75 59.35 60.46 60.37 59.80 61.40 62.94 65.55 70.31 72.01 73.87 74.78 73.47 75.23 74.68 75.27 76.27 75.43 66.44 52.36 51.82 52.54 52.00 53.27 55.49 52.90 49.46 47.28 47.83
MSLP
1000.41 1001.47 1002.42 1003.38 1004.39 1005.48 1006.62 1007.66 1008.71 1009.86 1010.79 1011.99 1012.95 1013.80 1014.38 1015.00 1015.53 1015.78 1016.16 1016.48 1016.33 1016.50 1016.58 1016.72 1017.21 1017.86 1018.21 1018.57 1018.77 1019.07 1019.37 1019.75 1019.71
999.15 1000.05 1001.00 1002.00 1003.13 1004.35 1005.41 1006.59 1007.63 1008.69 1009.72 1011.01 1011.77 1012.59 1013.61 1014.23 1014.83 1015.27 1015.23 1015.68 1016.12 1016.32 1016.47 1016.51 1017.05 1017.47 1017.88 1018.04 1018.34 1018.66 1018.85 1019.16 1019.30
998.24 998.81 999.71 1000.73 1001.81 1003.07 1004.22 1005.33 1006.57 1007.77 1008.85 1009.81 1010.49 1011.46 1012.47 1013.21 1013.83 1014.48 1014.99 1015.29 1015.73 1015.85 1016.01 1016.44 1016.57 1017.17 1017.47 1017.71 1017.88 1018.18 1018.59 1018.63 1018.83
997.25 997.71 998.33 999.53 1000.51 1001.68 1002.93 1004.21 1005.50 1006.62 1007.83 1008.81 1009.74 1010.33 1011.18 1012.08 1012.75 1013.43 1014.15 1014.63 1015.08 1015.53 1015.88 1016.09 1016.50 1016.71 1017.04 1017.25 1017.51 1017.82 1018.20 1018.38 1018.36
996.78 997.23 997.73 998.75 999.73 1000.95 1001.99 1003.02 1004.03 1005.18 1006.31 1007.44 1008.31 1009.03 1010.01 1010.88 1011.71 1012.40 1013.08 1013.77 1014.25 1014.82 1015.27 1015.61 1015.89 1016.21 1016.52 1016.81 1017.03 1017.33 1017.68 1017.90 1017.80
997.67 997.89 997.87 998.21 999.00 999.80 1000.93 1001.96 1002.99 1003.85 1005.01 1005.93 1006.87 1007.93 1008.84 1009.69 1010.57 1011.37 1012.05 1012.66 1013.37 1013.92 1014.50 1014.91 1015.22 1015.54 1015.84 1016.17 1016.45 1016.75 1017.09 1017.37 1017.51
999.02 998.82 998.55 998.24 998.49 999.13 1000.13 1001.07 1002.05 1002.92 1003.81 1004.72 1005.65 1006.69 1007.64 1008.57 1009.45 1010.21 1010.90 1011.63 1012.40 1013.05 1013.64 1014.17 1014.49 1014.77 1015.05 1015.41 1015.75 1016.05 1016.34 1016.61 1016.90
1000.14 999.73 999.24 999.33 999.12 999.13 999.79 1000.59 1001.33 1002.33 1003.13 1003.86 1004.56 1005.59 1006.52 1007.37 1008.33 1009.31 1010.13 1010.79 1011.46 1012.17 1012.75 1013.26 1013.73 1014.12 1014.40 1014.70 1014.98 1015.13 1015.60 1015.96 1016.19
1000.45 1000.15 1000.23 1000.13 999.82 999.47 999.28 999.74 1000.59 1001.41 1002.23 1002.81 1003.73 1004.40 1005.35 1006.40 1007.54 1008.30 1009.02 1009.89 1010.61 1011.34 1011.89 1012.41 1012.92 1013.26 1013.53 1013.81 1013.93 1013.98 1014.60 1015.18 1015.43
1001.68 1001.53 1001.17 1000.78 1000.35 999.94 999.39 999.04 999.73 1000.39 1001.26 1002.41 1002.89 1003.54 1004.59 1005.53 1006.51 1007.35 1008.02 1008.85 1009.72 1010.31 1010.93 1011.53 1012.01 1012.35 1012.67 1012.83 1013.19 1013.45 1013.88 1014.41 1014.88
1002.71 1002.39 1002.04 1001.41 1000.69 1000.04 999.61 998.99 998.53 999.79 1000.67 1001.61 1002.41 1003.25 1004.04 1004.75 1005.55 1006.43 1007.33 1008.09 1008.71 1009.36 1010.03 1010.43 1010.92 1011.39 1011.71 1012.11 1012.33 1012.79 1013.33 1013.82 1014.28
1003.37 1003.16 1002.72 1001.99 1001.28 1000.40 999.62 998.72 998.20 998.55 999.73 1000.57 1001.62 1002.30 1003.01 1003.83 1004.66 1005.59 1006.51 1007.18 1007.80 1008.44 1009.11 1009.50 1009.86 1010.31 1010.74 1011.14 1011.45 1011.90 1012.57 1013.39 1013.58
1004.44 1004.01 1003.29 1001.96 1000.51 999.34 997.97 997.59 997.57 997.65 998.73 999.60 1000.29 1001.05 1001.84 1003.00 1003.91 1004.59 1005.35 1006.18 1006.91 1007.61 1008.26 1008.52 1008.91 1009.21 1009.67 1010.11 1010.45 1011.03 1011.69 1012.48 1012.51
1005.50 1004.73 1003.71 1002.14 1000.51 999.11 997.18 995.98 996.61 996.71 998.00 998.45 999.47 1001.07 1001.88 1002.67 1003.43 1004.12 1004.67 1005.46 1006.12 1006.70 1007.25 1007.54 1008.11 1008.33 1008.69 1009.15 1009.56 1010.10 1010.66 1011.36 1011.73
1005.97 1005.26 1004.23 1002.85 1001.22 999.95 998.19 996.27 996.42 996.89 997.90 999.01 1000.02 1000.61 1001.23 1001.95 1002.76 1003.55 1004.18 1004.98 1005.57 1006.13 1006.63 1007.08 1007.35 1007.79 1007.87 1007.90 1008.54 1009.05 1009.56 1010.22 1010.79
1006.55 1005.87 1005.17 1004.11 1002.44 1001.05 999.76 998.18 997.20 997.99 998.52 999.25 999.76 1000.22 1000.77 1001.51 1002.37 1003.09 1003.33 1004.24 1004.94 1005.48 1005.91 1005.96 1006.39 1006.41 1006.64 1006.64 1006.67 1007.47 1008.27 1009.17 1009.81
1007.23 1006.51 1005.73 1004.99 1004.06 1002.80 1001.69 1000.81 1000.03 999.68 999.38 999.48 999.75 1000.10 1000.54 1001.11 1001.86 1002.54 1003.02 1003.51 1004.08 1004.39 1004.43 1004.84 1004.93 1005.03 1005.07 1005.29 1005.53 1005.81 1006.33 1007.75 1009.02
1007.82 1007.05 1006.25 1005.70 1004.91 1004.53 1003.61 1002.74 1001.99 1001.27 1000.54 999.85 999.63 999.92 1000.00 1000.42 1001.00 1001.96 1002.33 1002.65 1003.04 1003.54 1003.41 1003.52 1004.04 1004.15 1004.23 1004.23 1004.52 1004.89 1005.36 1005.86 1006.39
1008.03 1007.34 1006.59 1006.13 1005.74 1005.47 1004.83 1003.97 1003.51 1002.84 1001.93 1000.70 999.91 999.95 1000.02 1000.02 1000.11 1001.15 1001.62 1002.15 1003.12 1004.14 1004.89 1005.24 1005.13 1004.75 1004.49 1003.74 1004.40 1005.16 1005.53 1006.03 1006.52
1008.41 1007.47 1006.86 1006.35 1006.14 1006.26 1005.77 1005.14 1004.98 1004.32 1003.37 1002.33 1001.56 1000.29 1001.01 1000.36 1000.13 1000.54 1001.19 1001.71 1002.48 1003.39 1004.73 1004.94 1005.30 1005.64 1005.94 1005.43 1005.23 1005.65 1006.11 1006.57 1007.03
Wind_Speed
21 22 22 24 25 24 24 26 26 24 22 22 22 21 18 16 17 13 12 13 10 9 8 7 8 10 10 9 8 8 7 6 6
18 20 23 25 25 25 25 25 25 25 22 22 22 23 17 17 16 16 14 13 12 11 9 7 7 10 11 10 10 9 8 8 7
16 18 21 22 23 26 24 25 25 26 24 23 22 23 19 18 18 17 15 13 14 12 11 11 9 10 11 11 10 10 9 8 8
17 17 17 20 21 24 25 23 24 25 25 25 23 22 20 19 18 19 17 16 15 14 13 12 12 11 10 11 11 11 10 9 8
17 18 14 16 19 21 23 25 24 25 25 25 24 21 20 21 19 18 18 17 17 15 14 14 13 12 12 12 12 11 11 11 9
3 5 10 14 17 19 22 23 22 24 24 25 24 22 23 21 21 19 18 18 17 16 15 15 15 14 13 13 13 12 12 12 12
5 4 6 11 14 18 20 21 21 21 24 24 23 23 23 21 20 19 20 18 17 17 16 16 15 15 15 14 13 14 13 13 12
6 6 4 4 11 14 17 19 20 21 22 21 22 21 22 21 19 19 18 17 17 17 17 16 16 15 16 15 14 13 15 14 14
8 7 7 8 7 11 15 19 21 21 21 22 21 21 21 19 19 19 18 17 17 17 17 16 16 17 16 16 13 14 14 14 14
9 8 9 10 10 11 13 17 19 22 21 20 21 20 20 19 19 19 19 18 17 17 17 16 17 17 17 17 16 12 14 16 15
11 11 12 12 12 12 14 15 18 19 21 20 20 19 19 19 19 19 18 18 18 17 16 16 15 16 17 16 15 13 15 15 16
13 14 14 14 14 15 15 16 17 18 20 21 21 21 21 20 20 19 18 19 18 16 16 15 16 16 16 17 16 15 17 15 16
16 15 14 16 17 16 16 17 19 20 22 20 22 23 22 19 19 19 19 18 17 16 16 16 15 17 17 17 17 14 16 17 13
15 15 16 17 13 13 16 13 19 19 20 23 21 19 20 18 18 17 17 16 15 15 15 14 14 14 14 16 16 16 17 20 15
15 17 17 18 12 11 13 8 13 14 16 14 15 16 18 17 17 15 15 16 15 15 14 14 13 14 13 13 14 16 15 20 22
14 15 13 16 14 11 13 14 6 11 12 14 16 16 16 16 16 16 13 15 14 13 14 13 14 13 12 12 12 13 18 18 20
12 13 13 13 13 15 15 12 11 8 4 10 14 15 15 15 15 15 14 13 13 13 13 13 13 13 12 12 11 11 10 12 11
10 10 9 11 13 13 15 13 13 11 9 11 13 14 14 14 12 13 13 12 11 12 12 11 12 12 11 11 11 11 10 8 10
10 9 7 8 10 11 14 12 13 14 13 9 6 9 9 10 10 10 10 10 9 9 11 12 8 4 3 10 3 8 6 9 7
10 8 7 7 8 8 9 11 13 14 14 12 8 10 3 6 8 9 9 6 2 4 5 3 5 7 5 6 4 4 2 0 1
Wind_Direction
203 203 206 203 201 199 197 200 198 199 190 194 195 199 202 201 204 210 215 211 235 219 229 222 218 202 222 213 215 205 201 206 224
201 201 204 205 202 202 199 197 199 196 193 195 194 197 199 202 203 217 216 224 213 232 233 240 223 219 219 220 213 216 215 230 204
211 212 206 206 203 201 201 199 199 198 198 196 196 195 199 204 207 208 219 216 223 225 230 220 241 212 220 213 210 210 215 227 216
222 222 208 208 204 203 203 200 198 199 199 200 202 199 197 204 205 208 211 218 220 221 221 220 221 218 219 217 215 209 211 232 252
238 225 213 205 205 201 200 201 199 197 198 200 201 200 197 198 201 205 207 215 220 217 218 215 221 220 216 221 219 215 214 219 230
270 281 248 215 202 196 201 201 202 201 200 199 197 198 198 200 203 205 208 211 213 215 214 216 218 219 218 220 222 221 220 226 228
346 321 300 226 208 203 199 201 198 202 202 201 198 194 198 197 199 201 204 207 208 209 210 214 218 218 218 220 221 223 226 224 228
315 310 321 243 231 213 206 202 202 200 205 201 198 193 197 196 195 199 203 204 204 205 208 212 218 219 220 220 222 222 220 230 231
322 325 308 298 270 249 222 211 205 201 204 202 199 193 197 193 194 196 200 201 202 204 207 211 212 218 220 221 227 213 206 220 226
328 317 308 303 290 270 254 222 208 208 204 201 198 195 194 193 192 197 199 198 201 203 205 208 213 216 219 222 225 216 199 200 228
328 329 318 307 293 276 259 249 218 206 201 199 197 199 195 194 194 197 197 197 202 202 204 206 210 215 220 224 225 212 199 193 225
341 332 316 302 289 279 265 251 230 202 203 195 195 198 196 196 192 193 195 199 201 203 206 207 212 215 217 221 229 200 196 189 226
345 337 328 314 304 290 265 235 234 199 197 195 197 197 195 194 193 192 194 196 197 199 204 210 213 217 218 221 229 208 191 194 227
342 347 338 326 323 311 305 228 217 191 193 202 198 194 193 193 195 196 194 193 196 197 202 209 214 217 217 222 221 231 188 190 222
348 353 356 352 344 347 326 262 209 182 195 191 191 196 194 191 190 195 192 197 198 202 203 209 213 216 225 219 224 217 199 192 208
339 350 356 357 354 24 15 1 195 186 189 190 193 193 191 187 190 194 194 192 197 199 202 216 209 213 221 225 220 220 203 189 201
337 342 347 352 13 28 27 22 35 19 181 201 190 190 186 183 187 191 202 190 196 206 204 206 218 211 215 215 218 218 215 197 200
330 329 343 358 10 14 24 22 29 26 348 188 189 188 182 180 184 188 193 209 202 207 219 214 210 217 214 214 216 217 217 221 200
329 320 340 1 6 9 9 19 23 23 10 13 137 162 173 176 175 170 196 193 204 64 27 9 12 43 276 214 201 76 172 194 232
318 331 354 7 2 7 1 15 19 8 13 14 32 68 70 118 149 164 178 178 223 262 159 166 265 264 247 244 307 52 102 112 358